#timestamp,LO_Frequency,Hit,StdDev 
1574146815.2,286046999.1,N
1574146835.0,286046998.3,N
1574146835.9,286046998.3,N
1574146855.8,286047011.9,Y
1574146875.6,286047002.6,P
1574146895.4,286047003.3,N
1574146915.3,286047003.9,N
1574146935.1,286047003.8,N
1574146955.9,286047003.4,N
1574146975.7,286047004.3,N
1574146995.5,286047004.2,N
1574147015.4,286047005.9,N
1574147035.2,286047001.5,N
1574147055.0,286047001.7,N
1574147056.0,286047001.7,N
1574147075.8,286047002.2,N
1574147095.6,286047000.3,N
1574147115.5,286047002.1,N
1574147135.3,286047001.9,N
1574147155.1,286047002.1,N
1574147175.9,286047002.0,N
1574147195.7,286047002.5,N
1574147215.5,286047002.4,N
1574147235.4,286047001.6,N
1574147255.2,286047002.1,N
1574147275.1,286047002.6,N
1574147276.0,286047002.6,N
1574147295.8,286047001.8,N
1574147315.6,286047004.1,N
1574147335.5,286047005.7,Y
1574147355.3,286047002.2,P
1574147375.1,286047001.5,P
1574147395.9,286047001.9,P
1574147415.7,286047002.7,Y
1574147435.6,286046998.7,P
1574147455.4,286046999.4,N
1574147475.2,286046999.3,N
1574147495.1,286046999.6,N
1574147496.0,286046999.6,N
1574147515.8,286046997.4,N
1574147535.7,286046996.7,N
1574147555.5,286046997.1,N
1574147575.3,286046996.6,N
1574147595.2,286046999.1,N
1574147615.0,286047000.7,N
1574147615.9,286047000.7,N
1574147635.7,286047000.0,N
1574147655.6,286047000.9,N
1574147675.4,286047000.2,N
1574147695.3,286046999.8,N
1574147715.1,286047001.9,N
1574147735.8,286047001.8,N
1574147755.7,286047003.1,N
1574147775.5,286047002.1,N
1574147795.4,286047004.1,N
1574147815.2,286047001.4,N
1574147835.0,286047001.4,N
1574147835.9,286047001.4,N
1574147855.8,286047003.7,N
1574147875.6,286047001.4,N
1574147895.4,286047001.5,N
1574147915.3,286047001.5,N
1574147935.1,286047001.7,N
1574147955.9,286047001.8,N
1574147975.7,286047003.8,N
1574147995.5,286047002.5,N
1574148015.4,286047001.8,N
1574148035.2,286046999.7,N
1574148055.0,286047001.9,N
1574148056.0,286047001.9,N
1574148075.8,286047001.3,N
1574148095.6,286047003.8,N
1574148115.5,286047004.4,N
1574148135.3,286047003.6,N
1574148155.1,286047003.8,N
1574148175.9,286047001.9,N
1574148195.7,286047002.0,N
1574148215.6,286047002.1,N
1574148235.4,286047003.2,N
1574148255.2,286047003.3,N
1574148275.1,286047005.5,Y
1574148276.0,286047005.5,P
1574148295.8,286047002.0,N
1574148315.6,286047001.4,N
1574148335.5,286047004.3,N
1574148355.3,286047001.9,N
1574148375.2,286047002.0,N
1574148395.9,286047001.6,N
1574148415.7,286047002.4,N
1574148435.6,286047002.8,N
1574148455.4,286047000.5,N
1574148475.2,286047001.1,N
1574148495.1,286047001.0,N
1574148496.0,286047001.0,N
1574148515.8,286047000.2,N
1574148535.7,286046999.8,N
1574148555.5,286047002.6,N
1574148575.3,286047000.1,N
1574148595.2,286047002.6,N
1574148615.0,286047000.6,N
1574148615.9,286047000.6,N
1574148635.7,286047000.4,N
1574148655.6,286047002.2,N
1574148675.4,286046999.9,N
1574148695.3,286047000.7,N
1574148715.1,286046999.4,N
1574148716.0,286046999.4,N
1574148735.8,286046999.2,N
1574148755.7,286046997.4,N
1574148775.5,286046996.7,N
1574148795.3,286046995.3,N
1574148815.2,286046997.3,N
1574148835.0,286046993.3,Y
1574148835.9,286046993.3,P
1574148855.8,286046991.8,N
1574148875.6,286046994.8,N
1574148895.4,286046994.8,N
1574148915.3,286046992.4,N
1574148935.1,286046991.7,N
1574148955.9,286046992.1,N
1574148975.7,286046993.2,N
1574148995.5,286046993.0,N
1574149015.4,286046992.4,Y
1574149035.2,286046998.8,P
1574149055.0,286047011.9,P
1574149055.9,286046999.4,N
1574149075.8,286046996.7,N
1574149095.6,286046998.7,N
1574149115.5,286046998.3,N
1574149135.3,286046998.7,N
1574149155.1,286046999.5,N
1574149175.9,286046998.1,N
1574149195.7,286046998.6,N
1574149215.5,286046996.5,N
1574149235.4,286046996.8,N
1574149255.2,286046999.1,N
1574149275.1,286047000.4,N
1574149276.0,286047000.4,N
1574149295.8,286047002.3,N
1574149315.6,286047003.8,N
1574149335.5,286047003.3,N
1574149355.3,286047005.3,N
1574149375.1,286047006.6,N
1574149395.9,286047006.2,N
1574149415.7,286047006.1,N
1574149435.6,286047007.4,N
1574149455.4,286047004.5,N
1574149475.2,286047006.7,N
1574149495.1,286047005.6,N
1574149496.0,286047005.6,N
1574149515.8,286047007.0,N
1574149535.6,286047004.9,N
1574149555.5,286047007.2,N
1574149575.3,286047002.9,N
1574149595.2,286047005.6,N
1574149615.0,286047005.7,N
1574149615.9,286047005.7,N
1574149635.7,286047002.9,N
1574149655.6,286047003.4,N
1574149675.4,286047003.4,N
1574149695.3,286047003.4,N
1574149715.1,286047003.5,N
1574149716.0,286047003.5,N
1574149735.8,286047005.6,N
1574149755.7,286047005.6,N
1574149775.5,286047004.9,N
1574149795.4,286047004.7,N
1574149815.2,286047005.2,Y
1574149835.0,286047000.5,P
1574149835.9,286047000.5,N
1574149855.8,286047002.6,N
1574149875.6,286047002.5,N
1574149895.4,286047001.5,N
1574149915.3,286047002.0,N
1574149935.1,286047001.9,N
1574149955.9,286047002.0,N
1574149975.7,286047001.8,N
1574149995.5,286047001.5,N
1574150015.4,286047001.9,N
1574150035.2,286047002.5,N
1574150055.1,286047002.0,N
1574150056.0,286047002.0,N
1574150075.8,286047003.8,Y
1574150095.6,286047002.1,P
1574150115.5,286047000.1,N
1574150135.3,286047001.4,N
1574150155.1,286047002.3,N
1574150175.9,286047000.0,N
1574150195.7,286047000.4,N
1574150215.6,286047000.9,N
1574150235.4,286047002.6,N
1574150255.2,286047001.0,N
1574150275.1,286046998.2,N
1574150276.0,286046998.2,N
1574150295.8,286046998.6,N
1574150315.7,286046998.2,N
1574150335.5,286046998.7,N
1574150355.3,286046998.8,N
1574150375.2,286046998.7,N
1574150395.9,286046996.9,N
